Regional Weather Roundup
Issued by NWS

Home | Current Version | Previous Version | Graphics & Text | Print | Product List | Glossary On
Versions: 1 2 3 4 5 6 7 8 9 10 11 12 13 14 15 16 17 18 19 20 21 22 23 24 25 26 27 28 29 30 31 32 33 34 35 36 37 38 39 40 41 42 43 44 45 46 47 48 49 50
000
ASUS43 KLMK 232202
RWRKY
KENTUCKY REGIONAL WEATHER ROUNDUP
NATIONAL WEATHER SERVICE LOUISVILLE KY
600 PM EDT WED APR 23 2014

NOTE "FAIR" INDICATES FEW OR NO CLOUDS BELOW 12,000 FEET
WITH NO SIGNIFICANT WEATHER AND/OR OBSTRUCTIONS TO VISIBILITY.

KYZ001>023-026-027-061>063-070>075-232300-
WESTERN AND SOUTH CENTRAL KENTUCKY

CITY           SKY/WX    TMP DP  RH WIND       PRES   REMARKS
PADUCAH        SUNNY     70  36  28 VRB5      29.99F
HENDERSON      SUNNY     63  30  29 N3        30.02F
OWENSBORO      SUNNY     64  30  28 NE8       30.02F
HOPKINSVILLE   SUNNY     67  31  25 N8        30.00F
BOWLING GREEN  SUNNY     67  24  19 VRB5      30.01F
GLASGOW        NOT AVBL
$$

KYZ024-025-028>034-038-045-046-053-232300-
NORTH CENTRAL KENTUCKY

CITY           SKY/WX    TMP DP  RH WIND       PRES   REMARKS
LOUISVILLE/SDF MOSUNNY   64  30  27 NE8       30.03F
LOUISVILLE/LOU SUNNY     65  28  24 NE8G20    30.04F
FORT KNOX      SUNNY     62  28  27 N8        30.02F
$$

KYZ035>037-039>044-047>052-055>060-089>105-232300-
NORTHEAST KENTUCKY

CITY           SKY/WX    TMP DP  RH WIND       PRES   REMARKS
LEXINGTON      SUNNY     61  34  36 VRB5      30.04F
COVINGTON      MOSUNNY   60  30  32 N10       30.05
FRANKFORT      SUNNY     62  29  28 NE7       30.03S
$$

KYZ054-064>069-076>088-106>120-232300-
SOUTHEAST KENTUCKY

CITY           SKY/WX    TMP DP  RH WIND       PRES   REMARKS
JACKSON        SUNNY     62  27  26 VRB3      30.01S
LONDON         SUNNY     65  27  23 N8        30.00S
SOMERSET       NOT AVBL
MIDDLESBORO    NOT AVBL
MONTICELLO     CLEAR     66  34  30 NE7       30.02S
$$




USA.gov is the U.S. government's official web portal to all federal, state and local government web resources and services.